CW2414 Weather Reports


time (UTC)temp
F
wind
direction
speed
knots
gust
knots
rain 1hr
in
rain 24hr
in
rain mn
in
humidity
%
barometer
mb
20260505111513 47 170 0.0 1.7 0.00 0.00 0.00 96 1008.6
20260505101501 39 166 0.0 0.0 0.00 0.00 0.00 95 1008.4
20260505100005 38 166 0.0 0.0 0.00 0.00 0.00 95 1008.2
20260505094601 37 166 0.0 1.7 0.00 0.00 0.00 94 1008.3
20260505093106 37 166 0.0 0.0 0.00 0.00 0.00 94 1008.1
20260505091559 38 166 0.0 0.0 0.00 0.00 0.00 94 1008.1
20260505090057 38 166 0.9 1.7 0.00 0.00 0.00 93 1008.1
20260505084556 39 166 0.0 0.0 0.00 0.00 0.00 94 1008.1
20260505083057 39 166 0.0 0.9 0.00 0.00 0.00 94 1008.0
20260505081553 39 166 0.9 2.6 0.00 0.00 0.00 94 1008.2
20260505080049 40 166 0.9 1.7 0.00 0.00 0.00 94 1008.3
20260505074546 41 166 0.0 0.9 0.00 0.00 0.00 93 1008.3
20260505073046 41 166 0.0 0.0 0.00 0.00 0.00 94 1008.3
20260505071545 41 166 0.0 0.9 0.00 0.00 0.00 94 1008.3
20260505070048 41 166 0.0 1.7 0.00 0.00 0.00 94 1008.2
20260505064548 42 166 0.0 0.9 0.00 0.00 0.00 93 1008.1
20260505063042 42 166 0.0 4.3 0.00 0.00 0.00 93 1008.1
20260505061541 43 167 1.7 2.6 0.00 0.00 0.00 94 1008.1
20260505060041 43 168 0.0 0.0 0.00 0.00 0.00 94 1008.1
20260505054540 43 168 0.9 2.6 0.00 0.00 0.00 94 1007.9
20260505053105 42 168 0.9 4.3 0.00 0.00 0.00 93 1008.0
20260505051538 42 159 0.0 4.3 0.00 0.00 0.00 92 1008.0
20260505041541 42 196 0.0 0.0 0.00 0.00 0.00 92 1007.8
20260505040030 43 196 0.0 0.0 0.00 0.00 0.00 91 1008.5
20260505034532 44 196 0.0 0.0 0.00 0.00 0.00 90 1008.2
20260505033028 44 217 0.0 0.0 0.00 0.00 0.00 91 1008.3
20260505031527 44 217 0.0 0.0 0.00 0.00 0.00 90 1008.1
20260505030026 45 218 0.9 1.7 0.00 0.00 0.00 90 1008.2
20260505024525 45 218 0.9 1.7 0.00 0.00 0.00 89 1008.1
20260505023025 45 217 0.0 2.6 0.00 0.00 0.00 90 1008.0
20260505021524 44 170 2.6 7.8 0.00 0.00 0.00 91 1008.0
20260505020021 45 242 0.0 0.0 0.00 0.00 0.00 89 1007.6
20260505014520 45 242 0.0 1.7 0.00 0.01 0.00 89 1007.7
20260505013019 45 241 0.0 2.6 0.00 0.01 0.00 88 1007.4
20260505011542 46 242 0.9 1.7 0.00 0.01 0.00 86 1007.5
20260505010018 47 242 0.0 0.0 0.00 0.01 0.00 85 1007.3
20260505004515 48 242 0.0 1.7 0.00 0.01 0.00 84 1007.1
20260505003013 49 242 0.9 1.7 0.00 0.01 0.00 82 1006.9
20260505001511 51 242 0.9 2.6 0.00 0.01 0.00 77 1006.5
20260505000013 53 243 0.0 0.9 0.00 0.01 0.00 74 1006.2
20260504234509 54 244 0.9 3.5 0.00 0.01 0.00 73 1006.0
20260504233009 54 277 0.9 4.3 0.00 0.01 0.00 72 1005.7
20260504231510 55 279 0.9 6.1 0.00 0.01 0.00 71 1005.6
20260504230008 55 257 1.7 7.0 0.00 0.01 0.00 69 1005.5
20260504224608 56 265 0.9 7.0 0.00 0.03 0.00 68 1005.2
20260504223007 56 280 0.9 7.0 0.00 0.03 0.00 66 1005.1
20260504221508 57 259 4.3 9.6 0.00 0.03 0.00 65 1004.9
20260504220005 57 5 1.7 7.8 0.00 0.03 0.00 65 1004.6
20260504214507 57 269 3.5 13.9 0.00 0.06 0.00 63 1004.5
20260504213004 58 243 4.3 11.3 0.00 0.06 0.00 62 1004.3
20260504211506 58 295 3.5 9.6 0.00 0.06 0.00 62 1004.2
20260504210003 58 264 0.9 9.6 0.00 0.06 0.00 62 1004.2
20260504204502 58 280 4.3 9.6 0.00 0.06 0.00 61 1003.9
20260504203002 58 258 6.1 13.0 0.00 0.06 0.00 61 1004.1
20260504201501 58 238 5.2 13.9 0.00 0.06 0.00 60 1004.2
20260504200002 58 211 7.8 13.0 0.00 0.06 0.00 62 1004.0
20260504194606 57 258 5.2 10.4 0.00 0.09 0.00 65 1004.0
20260504193109 56 209 5.2 13.9 0.00 0.09 0.00 68 1004.0
20260504191613 55 213 5.2 12.2 0.00 0.09 0.00 71 1004.2
20260504184557 53 285 4.3 10.4 0.00 0.18 0.00 75 1004.7
20260504183057 53 215 2.6 8.7 0.00 0.18 0.00 75 1004.6
20260504181559 54 236 4.3 15.6 0.00 0.18 0.00 66 1004.6
20260504180055 56 242 7.8 15.6 0.00 0.18 0.00 58 1004.3
20260504174554 57 230 4.3 13.9 0.00 0.31 0.00 52 1003.6
20260504173053 59 202 6.1 12.2 0.00 0.31 0.00 44 1003.2
20260504171554 60 207 7.0 12.2 0.00 0.31 0.00 41 1003.1
20260504120105 44 238 6.1 10.4 0.00 0.55 0.00 67 1006.4